| time (UTC) | temp C | wind direction | speed KPH | gust KPH | rain 1hr cm | rain 24hr cm | rain mn cm | humidity % | barometer mb |
| 20260504214950 | 19 | 220 | 14.5 | 17.7 | 0.00 | 0.00 | 0.00 | 71 | 1016.2 |
| 20260504214446 | 19 | 180 | 12.9 | 20.9 | 0.00 | 0.00 | 0.00 | 72 | 1016.2 |
| 20260504213943 | 20 | 252 | 19.3 | 25.7 | 0.00 | 0.00 | 0.00 | 71 | 1016.6 |
| 20260504213439 | 20 | 252 | 9.7 | 14.5 | 0.00 | 0.00 | 0.00 | 70 | 1016.6 |
| 20260504212937 | 20 | 243 | 6.4 | 11.3 | 0.00 | 0.00 | 0.00 | 71 | 1016.6 |
| 20260504212432 | 20 | 212 | 14.5 | 16.1 | 0.00 | 0.00 | 0.00 | 71 | 1016.6 |
| 20260504211930 | 19 | 202 | 12.9 | 17.7 | 0.00 | 0.00 | 0.00 | 72 | 1016.6 |
| 20260504211426 | 19 | 225 | 11.3 | 12.9 | 0.00 | 0.00 | 0.00 | 72 | 1016.6 |
| 20260504210924 | 20 | 170 | 12.9 | 16.1 | 0.00 | 0.00 | 0.00 | 72 | 1016.6 |
| 20260504210421 | 19 | 150 | 16.1 | 17.7 | 0.00 | 0.00 | 0.00 | 73 | 1016.9 |
| 20260504205918 | 18 | 226 | 8.0 | 11.3 | 0.00 | 0.00 | 0.00 | 73 | 1016.6 |
| 20260504205415 | 19 | 161 | 9.7 | 12.9 | 0.00 | 0.00 | 0.00 | 72 | 1016.6 |
| 20260504204913 | 19 | 252 | 12.9 | 16.1 | 0.00 | 0.00 | 0.00 | 71 | 1016.6 |
| 20260504204412 | 20 | 252 | 11.3 | 14.5 | 0.00 | 0.00 | 0.00 | 74 | 1016.6 |
| 20260504203911 | 20 | 235 | 14.5 | 16.1 | 0.00 | 0.00 | 0.00 | 72 | 1016.6 |
| 20260504203408 | 20 | 268 | 3.2 | 9.7 | 0.00 | 0.00 | 0.00 | 73 | 1016.9 |
| 20260504202903 | 20 | 246 | 14.5 | 17.7 | 0.00 | 0.00 | 0.00 | 73 | 1016.6 |
| 20260504202400 | 19 | 264 | 17.7 | 20.9 | 0.00 | 0.00 | 0.00 | 72 | 1016.6 |
| 20260504201856 | 19 | 242 | 14.5 | 16.1 | 0.00 | 0.00 | 0.00 | 72 | 1016.6 |
| 20260504201354 | 19 | 239 | 19.3 | 25.7 | 0.00 | 0.00 | 0.00 | 73 | 1016.6 |
| 20260504200851 | 18 | 242 | 9.7 | 12.9 | 0.00 | 0.00 | 0.00 | 74 | 1016.6 |
| 20260504200348 | 18 | 214 | 9.7 | 16.1 | 0.00 | 0.00 | 0.00 | 74 | 1016.6 |
| 20260504195845 | 19 | 253 | 11.3 | 16.1 | 0.00 | 0.00 | 0.00 | 72 | 1016.6 |
| 20260504195340 | 19 | 250 | 12.9 | 22.5 | 0.00 | 0.00 | 0.00 | 70 | 1016.6 |
| 20260504194837 | 20 | 258 | 11.3 | 14.5 | 0.00 | 0.00 | 0.00 | 67 | 1016.6 |
| 20260504194333 | 19 | 246 | 14.5 | 16.1 | 0.00 | 0.00 | 0.00 | 67 | 1016.6 |
| 20260504193829 | 20 | 241 | 12.9 | 14.5 | 0.00 | 0.00 | 0.00 | 64 | 1016.9 |
| 20260504193327 | 19 | 228 | 14.5 | 17.7 | 0.00 | 0.00 | 0.00 | 63 | 1016.9 |
| 20260504192825 | 20 | 248 | 16.1 | 20.9 | 0.00 | 0.00 | 0.00 | 67 | 1016.9 |
| 20260504192323 | 19 | 231 | 11.3 | 14.5 | 0.00 | 0.00 | 0.00 | 65 | 1016.9 |
| 20260504191821 | 20 | 167 | 12.9 | 16.1 | 0.00 | 0.00 | 0.00 | 64 | 1016.9 |
| 20260504191318 | 20 | 255 | 11.3 | 14.5 | 0.00 | 0.00 | 0.00 | 62 | 1016.9 |
| 20260504190814 | 19 | 191 | 8.0 | 9.7 | 0.00 | 0.00 | 0.00 | 63 | 1016.9 |
| 20260504190310 | 18 | 189 | 3.2 | 12.9 | 0.00 | 0.00 | 0.00 | 65 | 1016.6 |
| 20260504185807 | 18 | 164 | 8.0 | 12.9 | 0.00 | 0.00 | 0.00 | 69 | 1016.6 |
| 20260504185304 | 19 | 176 | 3.2 | 9.7 | 0.00 | 0.00 | 0.00 | 67 | 1016.9 |
| 20260504184800 | 19 | 251 | 12.9 | 22.5 | 0.00 | 0.00 | 0.00 | 68 | 1016.9 |
| 20260504184256 | 18 | 235 | 14.5 | 17.7 | 0.00 | 0.00 | 0.00 | 69 | 1017.3 |
| 20260504183752 | 18 | 202 | 6.4 | 9.7 | 0.00 | 0.00 | 0.00 | 70 | 1016.9 |
| 20260504183249 | 18 | 241 | 12.9 | 14.5 | 0.00 | 0.00 | 0.00 | 72 | 1016.9 |
| 20260504182747 | 18 | 220 | 11.3 | 16.1 | 0.00 | 0.00 | 0.00 | 70 | 1016.9 |
| 20260504182244 | 18 | 192 | 16.1 | 22.5 | 0.00 | 0.00 | 0.00 | 71 | 1016.9 |
| 20260504181741 | 18 | 218 | 11.3 | 14.5 | 0.00 | 0.00 | 0.00 | 71 | 1016.9 |
| 20260504181238 | 18 | 186 | 9.7 | 14.5 | 0.00 | 0.00 | 0.00 | 70 | 1016.9 |
| 20260504180738 | 17 | 231 | 6.4 | 16.1 | 0.00 | 0.00 | 0.00 | 73 | 1017.3 |
| 20260504180236 | 18 | 159 | 3.2 | 12.9 | 0.00 | 0.00 | 0.00 | 70 | 1016.9 |
| 20260504175733 | 18 | 181 | 0.0 | 0.0 | 0.00 | 0.00 | 0.00 | 73 | 1017.3 |
| 20260504175229 | 18 | 243 | 9.7 | 12.9 | 0.00 | 0.00 | 0.00 | 69 | 1016.9 |
| 20260504174728 | 17 | 197 | 9.7 | 14.5 | 0.00 | 0.00 | 0.00 | 71 | 1016.9 |
| 20260504174225 | 18 | 170 | 11.3 | 14.5 | 0.00 | 0.00 | 0.00 | 71 | 1016.9 |
| 20260504173721 | 18 | 205 | 8.0 | 11.3 | 0.00 | 0.00 | 0.00 | 72 | 1016.9 |
| 20260504173219 | 18 | 239 | 0.0 | 3.2 | 0.00 | 0.00 | 0.00 | 73 | 1016.9 |
| 20260504172715 | 18 | 237 | 8.0 | 16.1 | 0.00 | 0.00 | 0.00 | 70 | 1016.9 |
| 20260504172211 | 18 | 258 | 8.0 | 11.3 | 0.00 | 0.00 | 0.00 | 70 | 1016.9 |
| 20260504171708 | 18 | 224 | 0.0 | 0.0 | 0.00 | 0.00 | 0.00 | 70 | 1016.9 |
| 20260504171205 | 18 | 216 | 0.0 | 0.0 | 0.00 | 0.00 | 0.00 | 70 | 1016.6 |
| 20260504170702 | 18 | 241 | 0.0 | 0.0 | 0.00 | 0.00 | 0.00 | 70 | 1016.6 |
| 20260504170200 | 18 | 214 | 3.2 | 11.3 | 0.00 | 0.00 | 0.00 | 69 | 1016.6 |
| 20260504160118 | 16 | 203 | 4.8 | 8.0 | 0.00 | 0.00 | 0.00 | 77 | 1016.2 |
| 20260504151045 | 15 | 204 | 0.0 | 0.0 | 0.00 | 0.00 | 0.00 | 78 | 1016.2 |
| 20260504150542 | 15 | 211 | 0.0 | 0.0 | 0.00 | 0.00 | 0.00 | 78 | 1016.2 |
| 20260504141008 | 14 | 269 | 6.4 | 8.0 | 0.00 | 0.00 | 0.00 | 85 | 1015.9 |
| 20260504140505 | 15 | 257 | 12.9 | 14.5 | 0.00 | 0.00 | 0.00 | 85 | 1015.6 |
| 20260504130429 | 14 | 259 | 0.0 | 0.0 | 0.00 | 0.00 | 0.00 | 83 | 1015.6 |
| 20260504110317 | 15 | 276 | 0.0 | 0.0 | 0.00 | 0.00 | 0.00 | 82 | 1015.6 |
| 20260504100234 | 15 | 239 | 0.0 | 0.0 | 0.00 | 0.00 | 0.00 | 83 | 1015.6 |
| 20260504081628 | 15 | 295 | 0.0 | 0.0 | 0.00 | 0.00 | 0.00 | 86 | 1016.2 |
| 20260504081123 | 15 | 288 | 0.0 | 0.0 | 0.00 | 0.00 | 0.00 | 86 | 1016.6 |
| 20260504080620 | 15 | 238 | 0.0 | 0.0 | 0.00 | 0.00 | 0.00 | 85 | 1016.6 |
| 20260504080117 | 15 | 239 | 0.0 | 0.0 | 0.00 | 0.00 | 0.00 | 85 | 1016.2 |
| 20260504050433 | 15 | 256 | 0.0 | 0.0 | 0.00 | 0.00 | 0.00 | 85 | 1015.6 |
| 20260504045930 | 15 | 264 | 0.0 | 0.0 | 0.00 | 0.00 | 0.00 | 85 | 1015.9 |
| 20260504045426 | 15 | 239 | 0.0 | 0.0 | 0.00 | 0.00 | 0.00 | 85 | 1015.6 |
| 20260504044922 | 15 | 240 | 0.0 | 0.0 | 0.00 | 0.00 | 0.00 | 85 | 1015.9 |
| 20260504044420 | 15 | 218 | 0.0 | 0.0 | 0.00 | 0.00 | 0.00 | 85 | 1015.9 |
| 20260504043917 | 15 | 238 | 0.0 | 0.0 | 0.00 | 0.00 | 0.00 | 85 | 1015.9 |
| 20260504043414 | 15 | 210 | 0.0 | 0.0 | 0.00 | 0.00 | 0.00 | 85 | 1015.9 |
| 20260504042911 | 15 | 229 | 0.0 | 0.0 | 0.00 | 0.00 | 0.00 | 85 | 1015.6 |
| 20260504042408 | 15 | 248 | 0.0 | 0.0 | 0.00 | 0.00 | 0.00 | 86 | 1015.9 |
| 20260504041904 | 15 | 223 | 0.0 | 0.0 | 0.00 | 0.00 | 0.00 | 86 | 1015.9 |
| 20260504041400 | 15 | 235 | 0.0 | 0.0 | 0.00 | 0.00 | 0.00 | 85 | 1015.6 |
| 20260504040856 | 15 | 230 | 0.0 | 0.0 | 0.00 | 0.00 | 0.00 | 85 | 1015.6 |
| 20260504040354 | 15 | 159 | 0.0 | 0.0 | 0.00 | 0.00 | 0.00 | 85 | 1015.9 |
| 20260504035849 | 15 | 245 | 0.0 | 0.0 | 0.00 | 0.00 | 0.00 | 84 | 1015.6 |
| 20260504035347 | 15 | 232 | 0.0 | 1.6 | 0.00 | 0.00 | 0.00 | 84 | 1015.6 |
| 20260504034844 | 15 | 178 | 9.7 | 11.3 | 0.00 | 0.00 | 0.00 | 84 | 1015.6 |
| 20260504034342 | 15 | 245 | 0.0 | 0.0 | 0.00 | 0.00 | 0.00 | 83 | 1015.2 |
| 20260504033839 | 15 | 262 | 6.4 | 8.0 | 0.00 | 0.00 | 0.00 | 83 | 1015.6 |
| 20260504033337 | 16 | 179 | 0.0 | 0.0 | 0.00 | 0.00 | 0.00 | 83 | 1015.2 |
| 20260504032833 | 16 | 252 | 0.0 | 1.6 | 0.00 | 0.00 | 0.00 | 83 | 1015.2 |
| 20260504032331 | 16 | 225 | 0.0 | 0.0 | 0.00 | 0.00 | 0.00 | 83 | 1015.2 |
| 20260504031827 | 16 | 230 | 0.0 | 0.0 | 0.00 | 0.00 | 0.00 | 82 | 1014.9 |
| 20260504031324 | 16 | 229 | 0.0 | 1.6 | 0.00 | 0.00 | 0.00 | 82 | 1015.2 |
| 20260504030820 | 16 | 157 | 0.0 | 0.0 | 0.00 | 0.00 | 0.00 | 81 | 1014.9 |
| 20260504030318 | 16 | 171 | 0.0 | 0.0 | 0.00 | 0.00 | 0.00 | 82 | 1014.9 |
| 20260504025814 | 16 | 239 | 0.0 | 0.0 | 0.00 | 0.00 | 0.00 | 82 | 1014.9 |
| 20260504025311 | 16 | 239 | 0.0 | 0.0 | 0.00 | 0.00 | 0.00 | 82 | 1014.9 |
| 20260504024808 | 16 | 236 | 0.0 | 0.0 | 0.00 | 0.00 | 0.00 | 82 | 1014.6 |
| 20260504024304 | 16 | 233 | 0.0 | 0.0 | 0.00 | 0.00 | 0.00 | 82 | 1014.6 |
| 20260504023801 | 16 | 177 | 0.0 | 0.0 | 0.00 | 0.00 | 0.00 | 81 | 1014.6 |
| 20260504023257 | 16 | 230 | 1.6 | 8.0 | 0.00 | 0.00 | 0.00 | 81 | 1014.9 |
| 20260504022753 | 16 | 226 | 0.0 | 0.0 | 0.00 | 0.00 | 0.00 | 82 | 1014.9 |
| 20260504022249 | 16 | 258 | 8.0 | 14.5 | 0.00 | 0.00 | 0.00 | 81 | 1014.6 |
| 20260504021747 | 16 | 244 | 12.9 | 12.9 | 0.00 | 0.00 | 0.00 | 81 | 1014.6 |
| 20260504021244 | 16 | 170 | 8.0 | 11.3 | 0.00 | 0.00 | 0.00 | 81 | 1014.6 |
| 20260504020741 | 16 | 237 | 1.6 | 4.8 | 0.00 | 0.00 | 0.00 | 81 | 1014.6 |
| 20260504020237 | 16 | 243 | 1.6 | 8.0 | 0.00 | 0.00 | 0.00 | 81 | 1014.6 |
| 20260504015733 | 16 | 234 | 0.0 | 0.0 | 0.00 | 0.00 | 0.00 | 81 | 1014.6 |
| 20260504015230 | 16 | 248 | 16.1 | 20.9 | 0.00 | 0.00 | 0.00 | 81 | 1014.2 |
| 20260504014726 | 16 | 266 | 0.0 | 0.0 | 0.00 | 0.00 | 0.00 | 81 | 1014.2 |
| 20260504014223 | 16 | 226 | 0.0 | 0.0 | 0.00 | 0.00 | 0.00 | 81 | 1014.2 |
| 20260504013721 | 16 | 234 | 8.0 | 12.9 | 0.00 | 0.00 | 0.00 | 81 | 1014.2 |
| 20260504013218 | 16 | 273 | 0.0 | 0.0 | 0.00 | 0.00 | 0.00 | 81 | 1014.2 |
| 20260504012714 | 16 | 228 | 6.4 | 9.7 | 0.00 | 0.00 | 0.00 | 81 | 1013.9 |
| 20260504012212 | 16 | 245 | 16.1 | 17.7 | 0.00 | 0.00 | 0.00 | 80 | 1014.2 |
| 20260504011709 | 16 | 233 | 0.0 | 0.0 | 0.00 | 0.00 | 0.00 | 80 | 1014.2 |
| 20260504011205 | 16 | 255 | 11.3 | 17.7 | 0.00 | 0.00 | 0.00 | 80 | 1014.2 |
| 20260504010702 | 16 | 238 | 6.4 | 12.9 | 0.00 | 0.00 | 0.00 | 80 | 1013.9 |
| 20260504010157 | 16 | 225 | 0.0 | 0.0 | 0.00 | 0.00 | 0.00 | 80 | 1014.2 |
| 20260504005654 | 17 | 226 | 6.4 | 11.3 | 0.00 | 0.00 | 0.00 | 79 | 1014.2 |
| 20260504005151 | 16 | 200 | 3.2 | 3.2 | 0.00 | 0.00 | 0.00 | 80 | 1013.9 |
| 20260504004649 | 16 | 232 | 0.0 | 0.0 | 0.00 | 0.00 | 0.00 | 80 | 1013.9 |
| 20260504004146 | 16 | 243 | 0.0 | 0.0 | 0.00 | 0.00 | 0.00 | 81 | 1013.9 |
| 20260504003642 | 16 | 255 | 12.9 | 14.5 | 0.00 | 0.00 | 0.00 | 81 | 1014.2 |
| 20260504003139 | 17 | 242 | 8.0 | 11.3 | 0.00 | 0.00 | 0.00 | 80 | 1013.9 |
| 20260504002636 | 17 | 185 | 0.0 | 0.0 | 0.00 | 0.00 | 0.00 | 80 | 1013.9 |
| 20260504002134 | 16 | 174 | 8.0 | 12.9 | 0.00 | 0.00 | 0.00 | 81 | 1014.2 |
| 20260504001631 | 16 | 273 | 4.8 | 8.0 | 0.00 | 0.00 | 0.00 | 81 | 1014.2 |
| 20260504001127 | 17 | 245 | 6.4 | 9.7 | 0.00 | 0.00 | 0.00 | 81 | 1013.9 |
| 20260504000624 | 17 | 223 | 3.2 | 8.0 | 0.00 | 0.00 | 0.00 | 81 | 1013.9 |
| 20260504000122 | 16 | 253 | 6.4 | 9.7 | 0.00 | 0.00 | 0.00 | 82 | 1013.9 |
| 20260503235620 | 17 | 243 | 0.0 | 0.0 | 0.00 | 0.00 | 0.00 | 81 | 1013.9 |
| 20260503235116 | 17 | 184 | 3.2 | 8.0 | 0.00 | 0.00 | 0.00 | 81 | 1013.5 |
| 20260503234614 | 17 | 186 | 0.0 | 0.0 | 0.00 | 0.00 | 0.00 | 81 | 1013.9 |
| 20260503234112 | 17 | 264 | 0.0 | 0.0 | 0.00 | 0.00 | 0.00 | 80 | 1013.9 |
| 20260503233609 | 17 | 253 | 11.3 | 12.9 | 0.00 | 0.00 | 0.00 | 81 | 1013.9 |
| 20260503233104 | 17 | 156 | 0.0 | 0.0 | 0.00 | 0.00 | 0.00 | 82 | 1013.9 |
| 20260503232601 | 16 | 216 | 0.0 | 0.0 | 0.00 | 0.00 | 0.00 | 83 | 1013.9 |
| 20260503232059 | 17 | 243 | 0.0 | 3.2 | 0.00 | 0.00 | 0.00 | 82 | 1014.2 |
| 20260503231556 | 17 | 233 | 8.0 | 11.3 | 0.00 | 0.00 | 0.00 | 81 | 1014.2 |
| 20260503231053 | 17 | 237 | 14.5 | 17.7 | 0.00 | 0.00 | 0.00 | 80 | 1014.2 |
| 20260503230549 | 17 | 195 | 0.0 | 0.0 | 0.00 | 0.00 | 0.00 | 81 | 1014.2 |
| 20260503230047 | 17 | 194 | 8.0 | 9.7 | 0.00 | 0.00 | 0.00 | 79 | 1014.2 |
| 20260503225544 | 17 | 204 | 0.0 | 1.6 | 0.00 | 0.00 | 0.00 | 77 | 1013.9 |
| 20260503225039 | 17 | 272 | 8.0 | 14.5 | 0.00 | 0.00 | 0.00 | 77 | 1014.2 |
| 20260503224537 | 17 | 242 | 4.8 | 9.7 | 0.00 | 0.00 | 0.00 | 77 | 1014.2 |
| 20260503224034 | 17 | 238 | 8.0 | 11.3 | 0.00 | 0.00 | 0.00 | 76 | 1014.6 |
| 20260503223533 | 17 | 244 | 6.4 | 9.7 | 0.00 | 0.00 | 0.00 | 77 | 1014.6 |
| 20260503223027 | 18 | 201 | 8.0 | 11.3 | 0.00 | 0.00 | 0.00 | 76 | 1014.6 |
| 20260503222526 | 17 | 244 | 6.4 | 9.7 | 0.00 | 0.00 | 0.00 | 76 | 1014.2 |
| 20260503222024 | 17 | 246 | 12.9 | 14.5 | 0.00 | 0.00 | 0.00 | 75 | 1014.6 |
| 20260503221522 | 18 | 253 | 4.8 | 4.8 | 0.00 | 0.00 | 0.00 | 75 | 1014.2 |
| 20260503221019 | 17 | 176 | 8.0 | 14.5 | 0.00 | 0.00 | 0.00 | 75 | 1014.6 |
| 20260503220515 | 18 | 254 | 11.3 | 16.1 | 0.00 | 0.00 | 0.00 | 72 | 1014.2 |
| 20260503220012 | 18 | 257 | 9.7 | 16.1 | 0.00 | 0.00 | 0.00 | 72 | 1014.6 |
| 20260503215509 | 18 | 198 | 6.4 | 11.3 | 0.00 | 0.00 | 0.00 | 73 | 1014.6 |